Flag for Singapore Weather past 2 weeks in Singapore, Singapore

Now
90 °F

Partly sunny.


Feels Like: 95 °F
Forecast: 75 / 87 °F
Wind: 14 mph from Northeast

Location: Singapore / Paya Lebar

Current Time: Jan 27, 2015 at 4:30:27 PM

Latest Report: Jan 27, 2015 at 4:00 PM


Visibility: N/A

Pressure: 29.80 "Hg

Humidity: 52%

Dew point: 70 °F

Location of SingaporeLocation

Historic Weather in Singapore — Graph

°F

Singapore temperature yesterday

Maximum temperature yesterday: 90 °F (at 3:00 PM)
Minimum temperature yesterday: 77 °F (at 5:00 AM)
Average temperature yesterday: 82 °F

Past Weeks' High & Low Weather Summary

 TemperatureHumidityPressure
High90 °F (Jan 12, 4:00 PM)89% (Jan 13, 5:00 AM)30.01 "Hg (Jan 13, 5:00 AM)
Low75 °F (Jan 20, 6:00 AM)46% (Jan 17, 3:00 PM)29.74 "Hg (Jan 12, 4:00 PM)
Average82 °F71%29.89 "Hg
* Reported Jan 12 3:00 PM — Jan 27 3:00 PM, Singapore, Weather by CustomWeather, © 2014

Note: Actual official high and low records may vary slightly from our data, if they occured in-between our weather recording intervals... More about our weather records

Advertising

Singapore weather history for previous 24 hours

 ConditionsComfort  
Time TempWeatherWind HumidityBarometerVisibility
3:00 PM
Jan 27
88 °FBroken clouds.12 mph55%29.83 "HgN/A
2:00 PM88 °FPartly sunny.12 mph55%29.86 "HgN/A
1:00 PM88 °FPartly sunny.12 mph55%29.89 "HgN/A
12:00 PM86 °FBroken clouds.16 mph62%29.92 "HgN/A
11:00 AM82 °FPartly sunny.15 mph70%29.92 "HgN/A
10:00 AM82 °FPartly sunny.16 mph70%29.92 "HgN/A
9:00 AM79 °FPartly sunny.13 mph79%29.89 "Hg6 mi
8:00 AM77 °FPartly sunny.5 mph83%29.89 "Hg5 mi
7:00 AM77 °FPassing clouds.8 mph83%29.86 "Hg6 mi
6:00 AM77 °FPassing clouds.7 mph83%29.86 "HgN/A
5:00 AM77 °FPassing clouds.7 mph83%29.86 "HgN/A
11:00 PM
Jan 26
79 °FPassing clouds.8 mph79%29.92 "HgN/A
10:00 PM79 °FPassing clouds.7 mph79%29.92 "HgN/A
9:00 PM81 °FPassing clouds.10 mph74%29.89 "HgN/A
8:00 PM81 °FPassing clouds.14 mph74%29.86 "HgN/A
7:00 PM82 °FPartly sunny.16 mph70%29.83 "HgN/A
6:00 PM84 °FPartly sunny.15 mph66%29.83 "HgN/A
5:00 PM86 °FPartly sunny.15 mph62%29.83 "Hg6 mi
4:00 PM86 °FBroken clouds.15 mph62%29.83 "HgN/A
Weather by CustomWeather, © 2014

See weather overviewHow to use our weather pages